Regional Weather Roundup
Issued by NWS San Diego, CA

Home | Current Version | Previous Version | Text Only | Print | Product List | Glossary On
Versions: 1 2 3 4 5 6 7 8 9 10 11 12 13 14 15 16 17 18 19 20 21 22 23 24 25 26 27 28 29 30 31 32 33 34 35 36 37 38 39 40 41 42 43 44 45 46 47 48 49 50
000
ASUS46 KSGX 220811
RWRSGX

SAN DIEGO HOURLY WEATHER ROUNDUP
NATIONAL WEATHER SERVICE SAN DIEGO CA
100 AM PDT SUN OCT 22 2017

NOTE: "FAIR" INDICATES FEW OR NO CLOUDS BELOW 12,000 FEET WITH NO
SIGNIFICANT WEATHER AND/OR OBSTRUCTIONS TO VISIBILITY.

CAZ042-043-060-061-PZZ750-775-220900-

GREATER SAN DIEGO AREA

CITY           SKY/WX    TMP DP  RH WIND       PRES   REMARKS
SAN DIEGO AP   CLEAR     65  59  81 CALM      30.10S
NATIONAL CITY    N/A     63  57  81 CALM      30.12R
CHULA VISTA      N/A     59  56  89 CALM      30.01S
IMPERIAL BEACH CLEAR     59  56  89 E7        30.09S
BROWN FIELD    CLEAR     60  56  86 CALM      30.09S
MIRAMAR MCAS   CLEAR     58  49  72 E8        30.09S
MONTGOMERY FLD CLEAR     64  56  75 N5        30.09S
GILLESPIE FLD  FAIR      57  50  77 CALM      30.10R

$$

NORTH SAN DIEGO COUNTY

CITY           SKY/WX    TMP DP  RH WIND       PRES   REMARKS
CAMP PENDLETON CLEAR     54  50  86 NE3       30.09S
OCEANSIDE AP   CLEAR     55  53  93 CALM      30.08S
OCEANSIDE HBR    N/A     60  57  88 CALM      30.11S
VISTA            N/A     57  50  77 CALM      30.07R
CARLSBAD       CLEAR     62  57  83 CALM      30.08S
DEL MAR          N/A     62  60  93 CALM      30.10S
LA JOLLA SCRIP   N/A     65  62  91 NE2       30.08S
FALLBROOK        N/A     67  44  44 NE3       30.10F
ESCONDIDO        N/A     61  52  72 CALM      30.11R
SAN MARCOS       N/A     64  43  46 CALM      30.11R
POWAY            N/A     54  49  82 CALM      30.12R

$$

EAST SAN DIEGO COUNTY

CITY           SKY/WX    TMP DP  RH WIND       PRES   REMARKS
RAMONA         CLEAR     68  26  20 N7        30.12R
SANTEE LAKES     N/A     55  50  83 CALM      30.09R
LA MESA          N/A     63  56  79 CALM      30.03S
JAMUL            N/A     57  38  48 CALM      30.10R
DESCANSO N       N/A     61  32  33 NE3       30.09S
CAMPO            N/A     61  22  22 NE9       30.13S

$$

ORANGE COUNTY AND THE LOS ANGELES BASIN

CITY           SKY/WX    TMP DP  RH WIND       PRES   REMARKS
JOHN WAYNE AP  CLEAR     64  52  64 CALM      30.09S
LAGUNA BEACH     N/A     58  49  72 N3        30.03F
LAKE FOREST FR   N/A     67  25  20 CALM      29.97R
HUNTINGTON BCH   N/A     59  53  79 N2        30.09F
LOS ALAMITOS   FAIR      61  48  62 CALM      30.08F
FULLERTON      CLEAR     61  48  62 CALM      30.08S
LONG BEACH     CLEAR     64  52  64 NW3       30.09S
L.A. AP        CLEAR     65  49  56 E5        30.09F
L.A. DOWNTOWN  CLEAR     65  46  50 CALM      30.09S

$$

THE INLAND EMPIRE

CITY           SKY/WX    TMP DP  RH WIND       PRES   REMARKS
CORONA         CLEAR     56  43  61 CALM      30.13R
CHINO          CLEAR     57  44  62 SE3       30.13R
ONTARIO        CLEAR     65  37  35 N3        30.13R
SAN BERNARDINO FAIR      62  28  28 E5        30.15R
RIVERSIDE AP   CLEAR     64  30  27 E5        30.13R
MORENO VALLEY    N/A     64  34  33 CALM      28.26R
MARCH ARB      CLEAR     53  27  36 W5        30.15S
HORSETHIEF CYN   N/A     69  18  14 NW7       30.14S
PERRIS           N/A     64  44  47 CALM        N/A
HEMET EAST       N/A     58  52  82 CALM      29.96S
FRENCH VALLEY  FAIR      55  32  41 NE6       30.15S
TEMECULA         N/A     59  46  62 CALM      30.18S

$$

SAN BERNARDINO AND RIVERSIDE COUNTY MOUNTAINS

CITY           SKY/WX    TMP DP  RH WIND       PRES   REMARKS
BIG BEAR AP    CLEAR     36  16  44 E3        30.40S

$$

SOUTHERN DESERT INCLUDING THE COACHELLA VALLEY

CITY           SKY/WX    TMP DP  RH WIND       PRES   REMARKS
PALM SPRINGS   CLEAR     69  20  15 NW6       30.14F
THOUSAND PALMS   N/A     66  20  17 N1        30.10S
PALM DESERT      N/A     65  32  28 CALM      31.04S
THERMAL        CLEAR     63  30  28 N8        30.08S
BLYTHE         CLEAR     66  12  12 N8        30.11S
IMPERIAL AP    CLEAR     60  36  40 SW3       30.08S
EL CENTRO NAS  CLEAR     61  24  24 W9        30.10S
YUMA AZ        CLEAR     68  21  16 N5        30.08S
MEXICALI       CLEAR     66  27  22 W5        30.09S

$$

UPPER DESERT

CITY           SKY/WX    TMP DP  RH WIND       PRES   REMARKS
VICTORVILLE AP CLEAR     46  16  29 CALM      30.28R
HESPERIA         N/A     51  21  30 W1        30.39R
PALMDALE       CLEAR     48  27  44 S8        30.28R
LANCASTER      CLEAR     47  26  44 W3        30.28R
DAGGETT        CLEAR     53  16  23 W6        30.25S
29 PALMS N     CLEAR     62  11  13 W14       30.29S
NEEDLES        CLEAR     67  11  11 CALM      30.16S

$$

REGIONAL REPORTS

CITY           SKY/WX    TMP DP  RH WIND       PRES   REMARKS
SANTA BARBARA  CLEAR     53  47  79 CALM      30.11S
SANDBERG       CLEAR     56  26  31 NE13      30.32S
LAS VEGAS NV   CLEAR     59  17  19 S6        30.26R
PHOENIX AZ     CLEAR     69  31  24 CALM      30.07R
TIJUANA        CLEAR     61  57  88 CALM      30.12S
ENSENADA NW      N/A     62  32  31 CALM      30.04S

$$

OFFSHORE ISLANDS

CITY           SKY/WX    TMP DP  RH WIND       PRES   REMARKS
CATALINA ARPT  CLEAR     71  28  20 N8        30.15S
SAN NICOLAS IS CLEAR     60  32  34 W12       30.11F

$$

MARINE AND OFFSHORE BUOY REPORTS

STATION/POSITION SKY/WX   TEMP    WIND        PRES    VSBY  SWELL
                          AIR SEA DIR/SP/G                  HT/PER/DIR
                          (F)     (DEG/KT/KT) (MB)    (MI)  (FT/S/D)
TANNER BANKS               64 64  330/ 14/ 14 1018.7F        11/330/15
S CLEMENTE BASIN           69 69  330/  6/  8 1018.7S         7/300/14
SAN NICOLAS IS.               62                N/A          10/300/15
SO. S. ROSA ISLA           61 60  320/ 16/ 19 1019.1F        10/300/15
W. S. BARBARA CH           60     320/ 10/ 14 1019.5
M. S. BARBARA CH           62 62  230/  6/ 10 1020.3
S. MONICA BASIN                   330/ 12/ 14 1018.3
S PEDRO CHANNEL               67                N/A           3/260/15
CMP PENDLETON NS              67                N/A           2/220/13
OCEANSIDE OFFSHR              69                N/A           2/180/20
TORREY PINES OTR              68                N/A           3/270/17
SAN DIEGO BAY                 73              1019.1F
POINT LOMA SOUTH              69                N/A           5/280/15

$$




USA.gov is the U.S. government's official web portal to all federal, state and local government web resources and services.